Regional Weather Roundup
Issued by NWS

Home | Current Version | Previous Version | Text Only | Print | Product List | Glossary Off
Versions: 1 2 3 4 5 6 7 8 9 10 11 12 13 14 15 16 17 18 19 20 21 22 23 24 25 26 27 28 29 30 31 32 33 34 35 36 37 38 39 40 41 42 43 44 45 46 47 48 49 50

000
ASUS45 KPSR 211910
RWRAZ

ARIZONA REGIONAL HOURLY WEATHER ROUNDUP
NATIONAL WEATHER SERVICE PHOENIX AZ
1200 PM MST THU AUG 21 2014

NOTE: FAIR INDICATES FEW OR NO CLOUDS BELOW 12,000 FEET WITH NO
SIGNIFICANT WEATHER AND/OR OBSTRUCTIONS TO VISIBILITY.

AZZ001>003-036-212000-
NORTHWEST ARIZONA

CITY           SKY/WX    TMP DP  RH WIND       PRES   REMARKS
BULLHEAD CITY  CLOUDY    86  57  37 SE10G20   29.95R
KINGMAN        LGT RAIN  68  60  75 S8        30.15R
$$

AZZ004>008-015-016-018-212000-
NORTH CENTRAL ARIZONA

CITY           SKY/WX    TMP DP  RH WIND       PRES   REMARKS
GRAND CANYON   PTSUNNY   68  48  48 CALM      30.30S
WILLIAMS       CLOUDY    68  45  42 SE7       30.33F
PRESCOTT       CLOUDY    66  51  58 SW18G26   30.20S
FLAGSTAFF      CLOUDY    66  45  46 E8        30.30F
PAYSON         PTSUNNY   79  55  44 VRB6G12   30.19F
PAGE           CLOUDY    83  44  25 N7        30.12F
$$

AZZ009>014-017-212000-
NORTHEAST ARIZONA

CITY           SKY/WX    TMP DP  RH WIND       PRES   REMARKS
WINSLOW        CLOUDY    80  46  30 E6        30.15F
SAINT JOHNS    PTSUNNY   78  47  33 VRB3      30.17F
WINDOW ROCK    PTSUNNY   79  37  22 VRB7      30.25
SHOW LOW       CLOUDY    72  45  37 NW6       30.26S
$$

AZZ023-212000-
GREATER PHOENIX AREA

CITY           SKY/WX    TMP DP  RH WIND       PRES   REMARKS
PHOENIX        CLOUDY    84  57  39 NW15      29.97F
BUCKEYE          N/A     79  64  61 NE5       29.97F
GLENDALE       PTSUNNY   75  66  73 NW13      29.99F
LUKE AFB       NOT AVBL
DEER VALLEY    CLOUDY    82  57  42 W15G23    30.00R
SCOTTSDALE     CLOUDY    84  57  39 W12G23    30.02R
MESA-FALCON    CLOUDY    84  57  39 W12G23    29.97F
MESA-GATEWAY   PTSUNNY   84  54  34 W18G29    30.00S
CHANDLER       PTSUNNY   84  57  39 W17G25    29.97F
$$

AZZ027-028-212000-
SOUTHWEST MARICOPA COUNTY AND PINAL COUNTY

CITY           SKY/WX    TMP DP  RH WIND       PRES   REMARKS
CASA GRANDE    CLOUDY    82  59  44 N12       29.99S
GILA BEND      MOCLDY    93  54  26 NE12      29.94F
$$

AZZ503-504-507>509-212000-
SOUTHEAST ARIZONA

CITY           SKY/WX    TMP DP  RH WIND       PRES   REMARKS
TUCSON         CLOUDY    83  62  49 W8        30.05F
DAVIS-MONTHAN  CLOUDY    82  63  52 W5        30.04S
RYAN FIELD       N/A     82  63  51 CALM      30.05S
NOGALES        CLOUDY    78  61  55 W5        30.11F
SIERRA VISTA   PTSUNNY   77  57  50 NE5       30.16S
DOUGLAS        SUNNY     81  59  47 CALM      30.11F
SAFFORD        SUNNY     87  57  35 W13       30.02F
$$

AZZ020-021-025-026-031-212000-
SOUTHWEST ARIZONA

CITY           SKY/WX    TMP DP  RH WIND       PRES   REMARKS
YUMA           PTSUNNY   99  57  24 SE13G22   29.85F
$$

CAZ031-033-041-043-047-048-061-212000-
SOUTHERN CALIFORNIA

CITY           SKY/WX    TMP DP  RH WIND       PRES   REMARKS
DOWNTOWN L.A.  SUNNY     78  62  57 VRB5      29.95S
L.A. AIRPORT   MOSUNNY   73  61  65 W9        29.97S
SAN DIEGO      MOSUNNY   76  63  64 NW12      29.96F
BURBANK        SUNNY     79  60  52 S8        29.95F
ONTARIO        MOSUNNY   83  59  44 VRB5      29.95F
RIVERSIDE      MOSUNNY   81  60  48 CALM      29.95F
PALM SPRINGS   MOSUNNY   94  50  22 S3        29.88F
EL CENTRO NAS  PTSUNNY   97  51  21 VRB5      29.84S
IMPERIAL       MOSUNNY   96  60  30 N9        29.83F
NEEDLES        MOSUNNY   92  56  29 E23G33    29.95R
$$

NVZ020-UTZ003-212000-
SOUTHERN NEVADA-UTAH

CITY           SKY/WX    TMP DP  RH WIND       PRES   REMARKS
LAS VEGAS      MOSUNNY   91  45  20 VRB3      29.92F
SALT LAKE CITY CLOUDY    75  50  41 VRB5      30.10S
$$

NMZ009-TXZ055-212000-
NEW MEXICO-WEST TEXAS

CITY           SKY/WX    TMP DP  RH WIND       PRES   REMARKS
ALBUQUERQUE    MOSUNNY   85  40  20 NE5       30.15F
EL PASO        MOSUNNY   89  50  26 SW10G18   30.07F
$$


........................KEY........................
SKY/WX - SKY CONDITION/WEATHER
TMP    - TEMPERATURE IN FAHRENHEIT
DP     - DEW POINT IN FAHRENHEIT
RH     - RELATIVE HUMIDITY IN PERCENT
WIND   - DIRECTION AND SPEED IN MILES PER HOUR (MPH)
VRB    - VARIABLE WIND DIRECTION
PRES   - MEAN SEA LEVEL PRESSURE IN INCHES OF MERCURY
         F - FALLING PRESSURE   R - RISING PRESSURE
         S - STEADY PRESSURE
VSB    - VISIBILITY IN MILES
HX     - HEAT INDEX IN FAHRENHEIT
WCI    - WIND CHILL INDEX IN FAHRENHEIT
TC     - TEMPERATURE IN CELSIUS WHICH IS ALSO KNOWN AS
         TEMPERATURE IN CENTIGRADE
AFB    - AIR FORCE BASE
         LUKE AFB IS LUKE AIR FORCE BASE
         DAVIS-MONTHAN IS DAVIS-MONTHAN AIR FORCE BASE
NAS    - NAVAL AIR STATION
         EL CENTRO NAS IS EL CENTRO NAVAL AIR STATION
N/A    - NOT AVAILABLE


USA.gov is the U.S. government's official web portal to all federal, state and local government web resources and services.